Time,TemperatureF,DewpointF,PressureIn,WindDirection,WindDirectionDegrees,WindSpeedMPH,WindSpeedGustMPH,Humidity,HourlyPrecipIn,Conditions,Clouds,dailyrainin,SoftwareType,DateUTC
2013-03-15 00:04:00,58.8,19.0,29.77,WNW,286,1.0,3.0,21,0.00,,---,0.00,VWS V14.00,2013-03-15 06:04:00,
2013-03-15 00:09:00,58.9,21.2,29.77,West,275,3.0,3.0,23,0.00,,---,0.00,VWS V14.00,2013-03-15 06:09:00,
2013-03-15 00:14:00,58.7,18.9,29.77,SW,235,4.0,6.0,21,0.00,,---,0.00,VWS V14.00,2013-03-15 06:14:00,
2013-03-15 00:19:00,58.8,19.0,29.77,WSW,241,3.0,6.0,21,0.00,,---,0.00,VWS V14.00,2013-03-15 06:19:00,
2013-03-15 00:24:00,59.3,18.3,29.76,WSW,241,2.0,6.0,20,0.00,,---,0.00,VWS V14.00,2013-03-15 06:24:00,
2013-03-15 00:29:00,59.5,18.4,29.76,WSW,241,0.0,3.0,20,0.00,,---,0.00,VWS V14.00,2013-03-15 06:29:00,
2013-03-15 00:34:00,59.6,18.5,29.76,WSW,241,0.0,3.0,20,0.00,,---,0.00,VWS V14.00,2013-03-15 06:34:00,
2013-03-15 00:39:00,59.1,19.2,29.75,WSW,243,0.0,4.0,21,0.00,,---,0.00,VWS V14.00,2013-03-15 06:39:00,
2013-03-15 00:45:00,59.0,19.1,29.75,WSW,243,0.0,4.0,21,0.00,,---,0.00,VWS V14.00,2013-03-15 06:45:00,
2013-03-15 00:50:00,58.8,19.0,29.75,WSW,244,0.0,4.0,21,0.00,,---,0.00,VWS V14.00,2013-03-15 06:50:00,
2013-03-15 00:55:00,58.9,17.9,29.75,WSW,244,0.0,4.0,20,0.00,,---,0.00,VWS V14.00,2013-03-15 06:55:00,
2013-03-15 01:00:00,59.5,18.4,29.75,WSW,244,0.0,3.0,20,0.00,,---,0.00,VWS V14.00,2013-03-15 07:00:00,
2013-03-15 01:05:00,59.1,19.2,29.75,SW,229,3.0,7.0,21,0.00,,---,0.00,VWS V14.00,2013-03-15 07:05:00,
2013-03-15 01:10:00,58.7,18.9,29.74,WSW,242,4.0,6.0,21,0.00,,---,0.00,VWS V14.00,2013-03-15 07:10:00,
2013-03-15 01:15:00,58.6,18.8,29.74,West,263,7.0,7.0,21,0.00,,---,0.00,VWS V14.00,2013-03-15 07:15:00,
2013-03-15 01:21:00,59.3,19.4,29.73,WSW,244,3.0,8.0,21,0.00,,---,0.00,VWS V14.00,2013-03-15 07:21:00,
2013-03-15 01:26:00,58.7,18.9,29.74,WSW,254,4.0,6.0,21,0.00,,---,0.00,VWS V14.00,2013-03-15 07:26:00,
2013-03-15 01:31:00,58.6,18.8,29.73,SSW,201,0.0,10.0,21,0.00,,---,0.00,VWS V14.00,2013-03-15 07:31:00,
2013-03-15 01:37:00,58.9,17.9,29.73,SSE,161,4.0,5.0,20,0.00,,---,0.00,VWS V14.00,2013-03-15 07:37:00,
2013-03-15 01:42:00,59.3,18.3,29.72,South,184,1.0,5.0,20,0.00,,---,0.00,VWS V14.00,2013-03-15 07:42:00,
2013-03-15 01:47:00,58.3,20.7,29.72,SSE,167,1.0,6.0,23,0.00,,---,0.00,VWS V14.00,2013-03-15 07:47:00,
2013-03-15 01:53:00,56.2,18.9,29.73,SSE,168,0.0,6.0,23,0.00,,---,0.00,VWS V14.00,2013-03-15 07:53:00,
2013-03-15 01:58:00,55.5,20.3,29.73,South,190,2.0,3.0,25,0.00,,---,0.00,VWS V14.00,2013-03-15 07:58:00,
2013-03-15 02:03:00,55.2,20.9,29.72,South,182,6.0,7.0,26,0.00,,---,0.00,VWS V14.00,2013-03-15 08:03:00,
2013-03-15 02:08:00,54.2,21.0,29.72,SW,221,3.0,6.0,27,0.00,,---,0.00,VWS V14.00,2013-03-15 08:08:00,
2013-03-15 02:13:00,54.2,21.0,29.73,SW,215,0.0,7.0,27,0.00,,---,0.00,VWS V14.00,2013-03-15 08:13:00,
2013-03-15 02:19:00,54.5,19.4,29.72,SW,216,0.0,2.0,25,0.00,,---,0.00,VWS V14.00,2013-03-15 08:19:00,
2013-03-15 02:24:00,55.2,20.0,29.72,SW,221,0.0,3.0,25,0.00,,---,0.00,VWS V14.00,2013-03-15 08:24:00,
2013-03-15 02:29:00,55.9,17.6,29.72,West,273,0.0,4.0,22,0.00,,---,0.00,VWS V14.00,2013-03-15 08:29:00,
2013-03-15 02:34:00,57.2,16.5,29.71,NW,304,3.0,4.0,20,0.00,,---,0.00,VWS V14.00,2013-03-15 08:34:00,
2013-03-15 02:39:00,58.4,17.5,29.71,West,280,0.0,5.0,20,0.00,,---,0.00,VWS V14.00,2013-03-15 08:39:00,
2013-03-15 02:44:00,58.9,16.7,29.71,West,281,3.0,5.0,19,0.00,,---,0.00,VWS V14.00,2013-03-15 08:44:00,
2013-03-15 02:49:00,59.5,16.0,29.70,West,261,0.0,9.0,18,0.00,,---,0.00,VWS V14.00,2013-03-15 08:49:00,
2013-03-15 02:55:00,60.1,16.5,29.70,NNE,22,0.0,9.0,18,0.00,,---,0.00,VWS V14.00,2013-03-15 08:55:00,
2013-03-15 03:00:00,60.3,16.6,29.70,NW,305,0.0,5.0,18,0.00,,---,0.00,VWS V14.00,2013-03-15 09:00:00,
2013-03-15 03:05:00,60.5,15.5,29.69,WSW,242,0.0,6.0,17,0.00,,---,0.00,VWS V14.00,2013-03-15 09:05:00,
2013-03-15 03:10:00,60.8,17.0,29.69,NE,51,0.0,7.0,18,0.00,,---,0.00,VWS V14.00,2013-03-15 09:10:00,
2013-03-15 03:16:00,60.9,17.1,29.69,West,273,1.0,1.0,18,0.00,,---,0.00,VWS V14.00,2013-03-15 09:16:00,
2013-03-15 03:21:00,61.0,15.9,29.68,ESE,105,6.0,11.0,17,0.00,,---,0.00,VWS V14.00,2013-03-15 09:21:00,
2013-03-15 03:27:00,60.6,16.9,29.67,NNW,331,1.0,6.0,18,0.00,,---,0.00,VWS V14.00,2013-03-15 09:27:00,
2013-03-15 03:32:00,60.4,18.0,29.67,ESE,103,0.0,12.0,19,0.00,,---,0.00,VWS V14.00,2013-03-15 09:32:00,
2013-03-15 03:37:00,60.4,16.7,29.68,SE,137,2.0,6.0,18,0.00,,---,0.00,VWS V14.00,2013-03-15 09:37:00,
2013-03-15 03:42:00,60.3,17.9,29.67,ENE,57,0.0,6.0,19,0.00,,---,0.00,VWS V14.00,2013-03-15 09:42:00,
2013-03-15 03:47:00,60.0,18.8,29.67,ENE,58,4.0,8.0,20,0.00,,---,0.00,VWS V14.00,2013-03-15 09:47:00,
2013-03-15 03:52:00,59.7,18.6,29.66,ENE,73,0.0,10.0,20,0.00,,---,0.00,VWS V14.00,2013-03-15 09:52:00,
2013-03-15 03:57:00,59.6,19.6,29.66,North,355,5.0,9.0,21,0.00,,---,0.00,VWS V14.00,2013-03-15 09:57:00,
2013-03-15 04:03:00,59.5,19.6,29.66,ESE,104,0.0,11.0,21,0.00,,---,0.00,VWS V14.00,2013-03-15 10:03:00,
2013-03-15 04:08:00,59.8,19.8,29.67,NW,310,4.0,9.0,21,0.00,,---,0.00,VWS V14.00,2013-03-15 10:08:00,
2013-03-15 04:13:00,59.6,20.7,29.66,East,82,0.0,9.0,22,0.00,,---,0.00,VWS V14.00,2013-03-15 10:13:00,
2013-03-15 04:18:00,59.2,21.4,29.66,NNE,20,5.0,8.0,23,0.00,,---,0.00,VWS V14.00,2013-03-15 10:18:00,
2013-03-15 04:23:00,59.1,20.3,29.65,South,171,5.0,9.0,22,0.00,,---,0.00,VWS V14.00,2013-03-15 10:23:00,
2013-03-15 04:28:00,59.0,21.3,29.65,SSE,161,1.0,6.0,23,0.00,,---,0.00,VWS V14.00,2013-03-15 10:28:00,
2013-03-15 04:33:00,58.7,22.0,29.65,SSW,192,3.0,11.0,24,0.00,,---,0.00,VWS V14.00,2013-03-15 10:33:00,
2013-03-15 04:39:00,58.4,21.8,29.65,South,188,6.0,11.0,24,0.00,,---,0.00,VWS V14.00,2013-03-15 10:39:00,
2013-03-15 04:44:00,57.8,22.2,29.65,South,187,4.0,11.0,25,0.00,,---,0.00,VWS V14.00,2013-03-15 10:44:00,
2013-03-15 04:49:00,57.2,23.5,29.65,South,175,5.0,10.0,27,0.00,,---,0.00,VWS V14.00,2013-03-15 10:49:00,
2013-03-15 04:54:00,56.4,22.9,29.64,South,180,0.0,10.0,27,0.00,,---,0.00,VWS V14.00,2013-03-15 10:54:00,
2013-03-15 04:59:00,56.5,22.9,29.63,SSE,161,8.0,9.0,27,0.00,,---,0.00,VWS V14.00,2013-03-15 10:59:00,
2013-03-15 05:04:00,57.2,21.7,29.64,ENE,71,4.0,12.0,25,0.00,,---,0.00,VWS V14.00,2013-03-15 11:04:00,
2013-03-15 05:10:00,57.5,22.0,29.64,NNE,13,0.0,9.0,25,0.00,,---,0.00,VWS V14.00,2013-03-15 11:10:00,
2013-03-15 05:15:00,57.4,22.8,29.64,NW,319,0.0,9.0,26,0.00,,---,0.00,VWS V14.00,2013-03-15 11:15:00,
2013-03-15 05:20:00,57.2,22.6,29.64,NNE,19,6.0,9.0,26,0.00,,---,0.00,VWS V14.00,2013-03-15 11:20:00,
2013-03-15 05:25:00,56.9,22.4,29.64,NNE,21,7.0,8.0,26,0.00,,---,0.00,VWS V14.00,2013-03-15 11:25:00,
2013-03-15 05:30:00,56.9,21.5,29.65,NNE,22,1.0,8.0,25,0.00,,---,0.00,VWS V14.00,2013-03-15 11:30:00,
2013-03-15 05:36:00,56.9,21.5,29.65,NNE,14,0.0,3.0,25,0.00,,---,0.00,VWS V14.00,2013-03-15 11:36:00,
2013-03-15 05:41:00,57.4,21.9,29.65,NNE,14,0.0,3.0,25,0.00,,---,0.00,VWS V14.00,2013-03-15 11:41:00,
2013-03-15 05:47:00,57.2,21.7,29.65,NNE,15,0.0,0.0,25,0.00,,---,0.00,VWS V14.00,2013-03-15 11:47:00,
2013-03-15 05:52:00,56.6,22.1,29.65,NNE,29,0.0,3.0,26,0.00,,---,0.00,VWS V14.00,2013-03-15 11:52:00,
2013-03-15 05:57:00,56.3,21.9,29.65,SW,233,0.0,4.0,26,0.00,,---,0.00,VWS V14.00,2013-03-15 11:57:00,
2013-03-15 06:02:00,56.4,22.0,29.65,SW,233,0.0,4.0,26,0.00,,---,0.00,VWS V14.00,2013-03-15 12:02:00,
2013-03-15 06:07:00,56.1,22.6,29.65,SW,233,0.0,0.0,27,0.00,,---,0.00,VWS V14.00,2013-03-15 12:07:00,
2013-03-15 06:12:00,55.7,22.3,29.65,WSW,240,0.0,1.0,27,0.00,,---,0.00,VWS V14.00,2013-03-15 12:12:00,
2013-03-15 06:17:00,55.5,22.1,29.64,WSW,240,0.0,2.0,27,0.00,,---,0.00,VWS V14.00,2013-03-15 12:17:00,
2013-03-15 06:23:00,54.9,22.4,29.64,SW,234,0.0,4.0,28,0.00,,---,0.00,VWS V14.00,2013-03-15 12:23:00,
2013-03-15 06:28:00,54.8,22.3,29.64,SSW,193,0.0,2.0,28,0.00,,---,0.00,VWS V14.00,2013-03-15 12:28:00,
2013-03-15 06:33:00,54.8,22.3,29.64,SSW,202,0.0,3.0,28,0.00,,---,0.00,VWS V14.00,2013-03-15 12:33:00,
2013-03-15 06:38:00,54.7,21.4,29.64,SE,138,0.0,5.0,27,0.00,,---,0.00,VWS V14.00,2013-03-15 12:38:00,
2013-03-15 06:43:00,54.9,21.6,29.63,SSE,163,0.0,5.0,27,0.00,,---,0.00,VWS V14.00,2013-03-15 12:43:00,
2013-03-15 06:48:00,54.8,22.3,29.64,SE,136,6.0,7.0,28,0.00,,---,0.00,VWS V14.00,2013-03-15 12:48:00,
2013-03-15 06:54:00,54.4,22.0,29.63,SSE,164,7.0,15.0,28,0.00,,---,0.00,VWS V14.00,2013-03-15 12:54:00,
2013-03-15 06:59:00,55.2,20.9,29.63,ENE,72,5.0,12.0,26,0.00,,---,0.00,VWS V14.00,2013-03-15 12:59:00,
2013-03-15 07:04:00,57.1,20.7,29.63,ENE,57,5.0,12.0,24,0.00,,---,0.00,VWS V14.00,2013-03-15 13:04:00,
2013-03-15 07:09:00,58.8,20.1,29.62,East,90,0.0,11.0,22,0.00,,---,0.00,VWS V14.00,2013-03-15 13:09:00,
2013-03-15 07:14:00,59.0,20.2,29.62,ESE,104,2.0,13.0,22,0.00,,---,0.00,VWS V14.00,2013-03-15 13:14:00,
2013-03-15 07:19:00,59.1,20.3,29.62,NE,44,7.0,12.0,22,0.00,,---,0.00,VWS V14.00,2013-03-15 13:19:00,
2013-03-15 07:24:00,59.1,19.2,29.62,NE,40,8.0,12.0,21,0.00,,---,0.00,VWS V14.00,2013-03-15 13:24:00,
2013-03-15 07:30:00,59.5,19.6,29.62,ESE,107,2.0,12.0,21,0.00,,---,0.00,VWS V14.00,2013-03-15 13:30:00,
2013-03-15 07:35:00,59.6,19.6,29.63,NNE,25,8.0,12.0,21,0.00,,---,0.00,VWS V14.00,2013-03-15 13:35:00,
2013-03-15 07:40:00,59.7,19.7,29.62,SSE,150,6.0,8.0,21,0.00,,---,0.00,VWS V14.00,2013-03-15 13:40:00,
2013-03-15 07:45:00,60.0,20.0,29.63,NE,40,6.0,11.0,21,0.00,,---,0.00,VWS V14.00,2013-03-15 13:45:00,
2013-03-15 07:50:00,60.7,19.4,29.63,NW,319,8.0,12.0,20,0.00,,---,0.00,VWS V14.00,2013-03-15 13:50:00,
2013-03-15 07:55:00,61.1,19.8,29.64,ENE,67,5.0,13.0,20,0.00,,---,0.00,VWS V14.00,2013-03-15 13:55:00,
2013-03-15 08:00:00,61.4,20.0,29.63,East,94,9.0,13.0,20,0.00,,---,0.00,VWS V14.00,2013-03-15 14:00:00,
2013-03-15 08:06:00,61.4,18.8,29.63,ENE,65,4.0,9.0,19,0.00,,---,0.00,VWS V14.00,2013-03-15 14:06:00,
2013-03-15 08:11:00,61.6,19.0,29.63,North,360,8.0,16.0,19,0.00,,---,0.00,VWS V14.00,2013-03-15 14:11:00,
2013-03-15 08:16:00,61.5,20.1,29.62,NNE,32,3.0,7.0,20,0.00,,---,0.00,VWS V14.00,2013-03-15 14:16:00,
2013-03-15 08:22:00,61.1,19.8,29.62,ENE,73,10.0,11.0,20,0.00,,---,0.00,VWS V14.00,2013-03-15 14:22:00,
2013-03-15 08:27:00,61.3,19.9,29.62,WSW,252,7.0,12.0,20,0.00,,---,0.00,VWS V14.00,2013-03-15 14:27:00,
2013-03-15 08:32:00,61.9,19.2,29.63,NW,318,6.0,13.0,19,0.00,,---,0.00,VWS V14.00,2013-03-15 14:32:00,
2013-03-15 08:37:00,62.6,19.8,29.62,NNW,337,8.0,11.0,19,0.00,,---,0.00,VWS V14.00,2013-03-15 14:37:00,
2013-03-15 08:42:00,63.0,18.9,29.62,WNW,300,18.0,18.0,18,0.00,,---,0.00,VWS V14.00,2013-03-15 14:42:00,
2013-03-15 08:47:00,63.3,19.1,29.63,North,360,16.0,18.0,18,0.00,,---,0.00,VWS V14.00,2013-03-15 14:47:00,
2013-03-15 08:53:00,64.3,19.9,29.63,North,355,1.0,18.0,18,0.00,,---,0.00,VWS V14.00,2013-03-15 14:53:00,
2013-03-15 08:58:00,64.9,19.1,29.63,WNW,292,6.0,10.0,17,0.00,,---,0.00,VWS V14.00,2013-03-15 14:58:00,
2013-03-15 09:03:00,65.3,20.7,29.63,SW,217,0.0,10.0,18,0.00,,---,0.00,VWS V14.00,2013-03-15 15:03:00,
2013-03-15 09:08:00,65.1,19.2,29.63,NW,323,5.0,9.0,17,0.00,,---,0.00,VWS V14.00,2013-03-15 15:08:00,
2013-03-15 09:13:00,64.6,20.2,29.62,WNW,287,0.0,9.0,18,0.00,,---,0.00,VWS V14.00,2013-03-15 15:13:00,
2013-03-15 09:19:00,64.8,20.3,29.62,NNW,348,1.0,6.0,18,0.00,,---,0.00,VWS V14.00,2013-03-15 15:19:00,
2013-03-15 09:24:00,65.3,20.7,29.62,NNE,32,0.0,8.0,18,0.00,,---,0.00,VWS V14.00,2013-03-15 15:24:00,
2013-03-15 09:29:00,65.9,21.2,29.61,WNW,286,0.0,8.0,18,0.00,,---,0.00,VWS V14.00,2013-03-15 15:29:00,
2013-03-15 09:34:00,67.0,20.8,29.61,West,279,0.0,17.0,17,0.00,,---,0.00,VWS V14.00,2013-03-15 15:34:00,
2013-03-15 09:39:00,67.4,21.1,29.61,WNW,290,0.0,12.0,17,0.00,,---,0.00,VWS V14.00,2013-03-15 15:39:00,
2013-03-15 09:44:00,67.9,21.5,29.61,North,360,7.0,12.0,17,0.00,,---,0.00,VWS V14.00,2013-03-15 15:44:00,
2013-03-15 09:49:00,68.1,20.2,29.61,WSW,254,9.0,14.0,16,0.00,,---,0.00,VWS V14.00,2013-03-15 15:49:00,
2013-03-15 09:55:00,68.2,20.3,29.60,ENE,70,1.0,18.0,16,0.00,,---,0.00,VWS V14.00,2013-03-15 15:55:00,
2013-03-15 10:00:00,68.3,21.8,29.60,SSE,161,8.0,12.0,17,0.00,,---,0.00,VWS V14.00,2013-03-15 16:00:00,
2013-03-15 10:05:00,67.6,21.3,29.59,SSE,161,7.0,18.0,17,0.00,,---,0.00,VWS V14.00,2013-03-15 16:05:00,
2013-03-15 10:10:00,67.5,21.2,29.59,South,169,8.0,13.0,17,0.00,,---,0.00,VWS V14.00,2013-03-15 16:10:00,
2013-03-15 10:15:00,67.4,21.1,29.59,SW,220,10.0,10.0,17,0.00,,---,0.00,VWS V14.00,2013-03-15 16:15:00,
2013-03-15 10:20:00,67.6,21.3,29.58,SW,219,6.0,23.0,17,0.00,,---,0.00,VWS V14.00,2013-03-15 16:20:00,
2013-03-15 10:26:00,67.7,21.4,29.58,SSE,162,10.0,12.0,17,0.00,,---,0.00,VWS V14.00,2013-03-15 16:26:00,
2013-03-15 10:31:00,68.2,21.8,29.58,South,188,18.0,18.0,17,0.00,,---,0.00,VWS V14.00,2013-03-15 16:31:00,
2013-03-15 10:36:00,68.3,21.8,29.58,South,176,8.0,14.0,17,0.00,,---,0.00,VWS V14.00,2013-03-15 16:36:00,
2013-03-15 10:42:00,67.8,21.4,29.57,SSE,159,10.0,16.0,17,0.00,,---,0.00,VWS V14.00,2013-03-15 16:42:00,
2013-03-15 10:47:00,68.0,21.6,29.56,SSW,209,12.0,27.0,17,0.00,,---,0.00,VWS V14.00,2013-03-15 16:47:00,
2013-03-15 10:52:00,68.2,21.8,29.57,South,180,12.0,27.0,17,0.00,,---,0.00,VWS V14.00,2013-03-15 16:52:00,
2013-03-15 10:57:00,68.2,20.3,29.57,ESE,113,6.0,14.0,16,0.00,,---,0.00,VWS V14.00,2013-03-15 16:57:00,
2013-03-15 11:02:00,68.6,20.6,29.56,SSE,164,10.0,17.0,16,0.00,,---,0.00,VWS V14.00,2013-03-15 17:02:00,
2013-03-15 11:08:00,69.2,21.1,29.56,SSE,156,13.0,17.0,16,0.00,,---,0.00,VWS V14.00,2013-03-15 17:08:00,
2013-03-15 11:13:00,69.6,21.5,29.56,SSE,167,15.0,22.0,16,0.00,,---,0.00,VWS V14.00,2013-03-15 17:13:00,
2013-03-15 11:18:00,69.6,19.9,29.56,South,180,6.0,18.0,15,0.00,,---,0.00,VWS V14.00,2013-03-15 17:18:00,
2013-03-15 11:23:00,69.6,19.9,29.55,ESE,111,7.0,25.0,15,0.00,,---,0.00,VWS V14.00,2013-03-15 17:23:00,
2013-03-15 11:28:00,69.7,20.0,29.56,SSE,166,7.0,24.0,15,0.00,,---,0.00,VWS V14.00,2013-03-15 17:28:00,
2013-03-15 11:33:00,69.5,19.9,29.56,South,174,17.0,24.0,15,0.00,,---,0.00,VWS V14.00,2013-03-15 17:33:00,
2013-03-15 11:39:00,69.9,20.2,29.57,SSE,150,10.0,19.0,15,0.00,,---,0.00,VWS V14.00,2013-03-15 17:39:00,
2013-03-15 11:44:00,70.3,20.5,29.56,SSE,147,4.0,21.0,15,0.00,,---,0.00,VWS V14.00,2013-03-15 17:44:00,
2013-03-15 11:49:00,71.4,21.4,29.56,North,11,9.0,11.0,15,0.00,,---,0.00,VWS V14.00,2013-03-15 17:49:00,
2013-03-15 11:54:00,72.5,20.6,29.56,ESE,115,1.0,11.0,14,0.00,,---,0.00,VWS V14.00,2013-03-15 17:54:00,
2013-03-15 11:59:00,72.4,20.5,29.56,NE,42,6.0,9.0,14,0.00,,---,0.00,VWS V14.00,2013-03-15 17:59:00,
2013-03-15 12:04:00,72.5,20.6,29.55,NNE,26,6.0,17.0,14,0.00,,---,0.00,VWS V14.00,2013-03-15 18:04:00,
2013-03-15 12:09:00,72.5,20.6,29.56,East,83,12.0,15.0,14,0.00,,---,0.00,VWS V14.00,2013-03-15 18:09:00,
2013-03-15 12:14:00,72.6,19.0,29.55,NNE,30,4.0,15.0,13,0.00,,---,0.00,VWS V14.00,2013-03-15 18:14:00,
2013-03-15 12:20:00,72.9,21.0,29.54,NE,39,7.0,22.0,14,0.00,,---,0.00,VWS V14.00,2013-03-15 18:20:00,
2013-03-15 12:25:00,73.1,19.4,29.55,SE,133,1.0,22.0,13,0.00,,---,0.00,VWS V14.00,2013-03-15 18:25:00,
2013-03-15 12:30:00,73.1,19.4,29.55,WSW,252,0.0,19.0,13,0.00,,---,0.00,VWS V14.00,2013-03-15 18:30:00,
2013-03-15 12:35:00,72.9,19.2,29.54,WNW,288,13.0,19.0,13,0.00,,---,0.00,VWS V14.00,2013-03-15 18:35:00,
2013-03-15 12:40:00,73.1,21.1,29.54,NE,34,7.0,14.0,14,0.00,,---,0.00,VWS V14.00,2013-03-15 18:40:00,
2013-03-15 12:45:00,73.9,20.0,29.54,SE,145,7.0,10.0,13,0.00,,---,0.00,VWS V14.00,2013-03-15 18:45:00,
2013-03-15 12:51:00,73.7,19.8,29.53,SW,226,2.0,10.0,13,0.00,,---,0.00,VWS V14.00,2013-03-15 18:51:00,
2013-03-15 12:56:00,73.9,20.0,29.53,North,9,3.0,12.0,13,0.00,,---,0.00,VWS V14.00,2013-03-15 18:56:00,
2013-03-15 13:01:00,73.7,19.8,29.53,South,184,1.0,17.0,13,0.00,,---,0.00,VWS V14.00,2013-03-15 19:01:00,
2013-03-15 13:06:00,73.7,23.2,29.52,SSE,163,12.0,14.0,15,0.00,,---,0.00,VWS V14.00,2013-03-15 19:06:00,
2013-03-15 13:11:00,73.9,21.7,29.53,NW,313,0.0,18.0,14,0.00,,---,0.00,VWS V14.00,2013-03-15 19:11:00,
2013-03-15 13:17:00,74.0,18.2,29.53,SSW,213,0.0,9.0,12,0.00,,---,0.00,VWS V14.00,2013-03-15 19:17:00,
2013-03-15 13:22:00,73.2,21.2,29.51,North,5,10.0,19.0,14,0.00,,---,0.00,VWS V14.00,2013-03-15 19:22:00,
2013-03-15 13:27:00,72.4,18.8,29.52,NE,40,7.0,9.0,13,0.00,,---,0.00,VWS V14.00,2013-03-15 19:27:00,
2013-03-15 13:32:00,72.4,20.5,29.52,NNE,32,4.0,12.0,14,0.00,,---,0.00,VWS V14.00,2013-03-15 19:32:00,
2013-03-15 13:38:00,72.7,20.8,29.51,ENE,73,5.0,10.0,14,0.00,,---,0.00,VWS V14.00,2013-03-15 19:38:00,
2013-03-15 13:43:00,72.7,20.8,29.51,NNE,20,5.0,12.0,14,0.00,,---,0.00,VWS V14.00,2013-03-15 19:43:00,
2013-03-15 13:48:00,72.0,18.5,29.51,North,9,14.0,21.0,13,0.00,,---,0.00,VWS V14.00,2013-03-15 19:48:00,
2013-03-15 13:53:00,70.7,17.5,29.51,NE,53,21.0,28.0,13,0.00,,---,0.00,VWS V14.00,2013-03-15 19:53:00,
2013-03-15 13:58:00,70.7,19.2,29.50,North,351,7.0,26.0,14,0.00,,---,0.00,VWS V14.00,2013-03-15 19:58:00,
2013-03-15 14:04:00,71.7,18.3,29.50,NNE,24,19.0,30.0,13,0.00,,---,0.00,VWS V14.00,2013-03-15 20:04:00,
2013-03-15 14:09:00,71.0,19.4,29.50,NNE,15,17.0,24.0,14,0.00,,---,0.00,VWS V14.00,2013-03-15 20:09:00,
2013-03-15 14:14:00,71.5,19.8,29.49,North,5,15.0,25.0,14,0.00,,---,0.00,VWS V14.00,2013-03-15 20:14:00,
2013-03-15 14:19:00,70.8,19.3,29.49,NE,38,13.0,26.0,14,0.00,,---,0.00,VWS V14.00,2013-03-15 20:19:00,
2013-03-15 14:24:00,72.0,20.2,29.48,North,11,14.0,30.0,14,0.00,,---,0.00,VWS V14.00,2013-03-15 20:24:00,
2013-03-15 14:30:00,73.1,19.4,29.49,NNE,15,9.0,22.0,13,0.00,,---,0.00,VWS V14.00,2013-03-15 20:30:00,
2013-03-15 14:35:00,73.4,19.6,29.48,North,351,18.0,26.0,13,0.00,,---,0.00,VWS V14.00,2013-03-15 20:35:00,
2013-03-15 14:40:00,73.7,21.6,29.48,NNE,32,4.0,20.0,14,0.00,,---,0.00,VWS V14.00,2013-03-15 20:40:00,
2013-03-15 14:45:00,74.1,20.2,29.48,ENE,57,0.0,20.0,13,0.00,,---,0.00,VWS V14.00,2013-03-15 20:45:00,
2013-03-15 14:50:00,74.2,20.2,29.48,NNW,348,12.0,20.0,13,0.00,,---,0.00,VWS V14.00,2013-03-15 20:50:00,
2013-03-15 14:55:00,73.9,21.7,29.48,NE,38,4.0,8.0,14,0.00,,---,0.00,VWS V14.00,2013-03-15 20:55:00,
2013-03-15 15:01:00,74.0,23.5,29.47,North,9,3.0,9.0,15,0.00,,---,0.00,VWS V14.00,2013-03-15 21:01:00,
2013-03-15 15:06:00,73.7,21.6,29.48,SSE,158,13.0,14.0,14,0.00,,---,0.00,VWS V14.00,2013-03-15 21:06:00,
2013-03-15 15:11:00,73.8,21.7,29.47,ENE,76,3.0,14.0,14,0.00,,---,0.00,VWS V14.00,2013-03-15 21:11:00,
2013-03-15 15:17:00,74.2,22.0,29.47,North,355,4.0,6.0,14,0.00,,---,0.00,VWS V14.00,2013-03-15 21:17:00,
2013-03-15 15:22:00,74.8,22.5,29.47,ESE,122,9.0,9.0,14,0.00,,---,0.00,VWS V14.00,2013-03-15 21:22:00,
2013-03-15 15:27:00,74.9,22.5,29.47,NW,323,12.0,14.0,14,0.00,,---,0.00,VWS V14.00,2013-03-15 21:27:00,
2013-03-15 15:32:00,74.2,20.2,29.47,West,277,0.0,15.0,13,0.00,,---,0.00,VWS V14.00,2013-03-15 21:32:00,
2013-03-15 15:37:00,73.7,19.8,29.47,NNE,19,10.0,16.0,13,0.00,,---,0.00,VWS V14.00,2013-03-15 21:37:00,
2013-03-15 15:43:00,72.3,18.7,29.47,NNW,332,6.0,24.0,13,0.00,,---,0.00,VWS V14.00,2013-03-15 21:43:00,
2013-03-15 15:48:00,72.0,20.2,29.46,North,360,20.0,24.0,14,0.00,,---,0.00,VWS V14.00,2013-03-15 21:48:00,
2013-03-15 15:53:00,72.1,18.6,29.47,ESE,122,15.0,24.0,13,0.00,,---,0.00,VWS V14.00,2013-03-15 21:53:00,
2013-03-15 15:58:00,71.7,16.4,29.47,NNW,336,11.0,21.0,12,0.00,,---,0.00,VWS V14.00,2013-03-15 21:58:00,
2013-03-15 16:03:00,71.0,19.4,29.47,NNE,21,9.0,26.0,14,0.00,,---,0.00,VWS V14.00,2013-03-15 22:03:00,
2013-03-15 16:08:00,71.0,19.4,29.46,North,360,9.0,26.0,14,0.00,,---,0.00,VWS V14.00,2013-03-15 22:08:00,
2013-03-15 16:14:00,71.3,19.7,29.47,NNW,338,6.0,26.0,14,0.00,,---,0.00,VWS V14.00,2013-03-15 22:14:00,
2013-03-15 16:19:00,70.6,17.4,29.47,NNE,14,9.0,17.0,13,0.00,,---,0.00,VWS V14.00,2013-03-15 22:19:00,
2013-03-15 16:24:00,70.3,18.9,29.47,North,355,2.0,19.0,14,0.00,,---,0.00,VWS V14.00,2013-03-15 22:24:00,
2013-03-15 16:29:00,70.1,18.7,29.47,North,360,9.0,12.0,14,0.00,,---,0.00,VWS V14.00,2013-03-15 22:29:00,
2013-03-15 16:34:00,70.1,18.7,29.46,NNW,340,10.0,16.0,14,0.00,,---,0.00,VWS V14.00,2013-03-15 22:34:00,
2013-03-15 16:39:00,70.4,19.0,29.46,North,5,14.0,16.0,14,0.00,,---,0.00,VWS V14.00,2013-03-15 22:39:00,
2013-03-15 16:44:00,71.1,21.1,29.46,North,5,8.0,16.0,15,0.00,,---,0.00,VWS V14.00,2013-03-15 22:44:00,
2013-03-15 16:49:00,71.2,19.6,29.46,NE,46,19.0,19.0,14,0.00,,---,0.00,VWS V14.00,2013-03-15 22:49:00,
2013-03-15 16:55:00,70.6,19.1,29.46,NNE,27,8.0,19.0,14,0.00,,---,0.00,VWS V14.00,2013-03-15 22:55:00,
2013-03-15 17:00:00,70.5,20.7,29.46,ENE,63,7.0,12.0,15,0.00,,---,0.00,VWS V14.00,2013-03-15 23:00:00,
2013-03-15 17:05:00,70.0,18.6,29.46,North,360,8.0,19.0,14,0.00,,---,0.00,VWS V14.00,2013-03-15 23:05:00,
2013-03-15 17:10:00,69.5,19.9,29.46,NNE,17,8.0,14.0,15,0.00,,---,0.00,VWS V14.00,2013-03-15 23:10:00,
2013-03-15 17:15:00,69.1,19.5,29.46,West,275,9.0,15.0,15,0.00,,---,0.00,VWS V14.00,2013-03-15 23:15:00,
2013-03-15 17:20:00,68.9,19.4,29.46,NE,38,7.0,12.0,15,0.00,,---,0.00,VWS V14.00,2013-03-15 23:20:00,
2013-03-15 17:25:00,68.8,17.7,29.46,NNE,14,3.0,8.0,14,0.00,,---,0.00,VWS V14.00,2013-03-15 23:25:00,
2013-03-15 17:31:00,68.9,16.1,29.46,NNW,336,3.0,13.0,13,0.00,,---,0.00,VWS V14.00,2013-03-15 23:31:00,
2013-03-15 17:36:00,68.9,17.8,29.45,East,92,8.0,16.0,14,0.00,,---,0.00,VWS V14.00,2013-03-15 23:36:00,
2013-03-15 17:42:00,68.8,17.7,29.46,ENE,62,7.0,16.0,14,0.00,,---,0.00,VWS V14.00,2013-03-15 23:42:00,
2013-03-15 17:47:00,68.7,17.6,29.46,NNW,331,11.0,11.0,14,0.00,,---,0.00,VWS V14.00,2013-03-15 23:47:00,
2013-03-15 17:52:00,68.6,17.5,29.46,NNE,27,5.0,11.0,14,0.00,,---,0.00,VWS V14.00,2013-03-15 23:52:00,
2013-03-15 17:57:00,68.6,15.8,29.47,North,5,5.0,8.0,13,0.00,,---,0.00,VWS V14.00,2013-03-15 23:57:00,
2013-03-15 18:02:00,68.5,17.5,29.47,East,88,1.0,9.0,14,0.00,,---,0.00,VWS V14.00,2013-03-16 00:02:00,
2013-03-15 18:07:00,68.0,17.1,29.46,ENE,71,6.0,11.0,14,0.00,,---,0.00,VWS V14.00,2013-03-16 00:07:00,
2013-03-15 18:13:00,67.6,18.3,29.47,NNE,22,18.0,22.0,15,0.00,,---,0.00,VWS V14.00,2013-03-16 00:13:00,
2013-03-15 18:18:00,67.1,17.9,29.46,NNE,26,8.0,22.0,15,0.00,,---,0.00,VWS V14.00,2013-03-16 00:18:00,
2013-03-15 18:23:00,66.8,19.2,29.45,North,5,14.0,23.0,16,0.00,,---,0.00,VWS V14.00,2013-03-16 00:23:00,
2013-03-15 18:28:00,66.6,19.0,29.46,NNW,335,11.0,21.0,16,0.00,,---,0.00,VWS V14.00,2013-03-16 00:28:00,
2013-03-15 18:33:00,66.5,19.0,29.46,NNE,26,9.0,21.0,16,0.00,,---,0.00,VWS V14.00,2013-03-16 00:33:00,
2013-03-15 18:39:00,66.3,18.8,29.47,NNE,24,9.0,16.0,16,0.00,,---,0.00,VWS V14.00,2013-03-16 00:39:00,
2013-03-15 18:44:00,66.0,20.0,29.47,WNW,296,6.0,19.0,17,0.00,,---,0.00,VWS V14.00,2013-03-16 00:44:00,
2013-03-15 18:49:00,65.5,19.6,29.46,NNE,16,12.0,19.0,17,0.00,,---,0.00,VWS V14.00,2013-03-16 00:49:00,
2013-03-15 18:54:00,65.2,20.7,29.47,North,5,9.0,19.0,18,0.00,,---,0.00,VWS V14.00,2013-03-16 00:54:00,
2013-03-15 18:59:00,64.8,20.3,29.47,NNE,15,11.0,22.0,18,0.00,,---,0.00,VWS V14.00,2013-03-16 00:59:00,
2013-03-15 19:04:00,64.9,20.4,29.47,North,360,10.0,22.0,18,0.00,,---,0.00,VWS V14.00,2013-03-16 01:04:00,
2013-03-15 19:09:00,64.6,20.2,29.48,NNE,17,10.0,19.0,18,0.00,,---,0.00,VWS V14.00,2013-03-16 01:09:00,
2013-03-15 19:14:00,64.5,20.1,29.48,North,9,16.0,20.0,18,0.00,,---,0.00,VWS V14.00,2013-03-16 01:14:00,
2013-03-15 19:19:00,64.2,21.1,29.48,NNE,22,11.0,20.0,19,0.00,,---,0.00,VWS V14.00,2013-03-16 01:19:00,
2013-03-15 19:25:00,63.8,20.8,29.49,North,355,9.0,20.0,19,0.00,,---,0.00,VWS V14.00,2013-03-16 01:25:00,
2013-03-15 19:30:00,63.1,20.2,29.49,NNW,327,9.0,12.0,19,0.00,,---,0.00,VWS V14.00,2013-03-16 01:30:00,
2013-03-15 19:35:00,62.7,21.1,29.49,NNW,347,7.0,12.0,20,0.00,,---,0.00,VWS V14.00,2013-03-16 01:35:00,
2013-03-15 19:40:00,62.3,20.8,29.49,NNW,346,9.0,12.0,20,0.00,,---,0.00,VWS V14.00,2013-03-16 01:40:00,
2013-03-15 19:45:00,62.2,20.7,29.49,North,355,9.0,11.0,20,0.00,,---,0.00,VWS V14.00,2013-03-16 01:45:00,
2013-03-15 19:51:00,62.0,20.5,29.49,NNW,340,8.0,11.0,20,0.00,,---,0.00,VWS V14.00,2013-03-16 01:51:00,
2013-03-15 19:56:00,62.0,20.5,29.49,NW,325,8.0,8.0,20,0.00,,---,0.00,VWS V14.00,2013-03-16 01:56:00,
2013-03-15 20:01:00,62.3,20.8,29.49,NW,326,5.0,8.0,20,0.00,,---,0.00,VWS V14.00,2013-03-16 02:01:00,
2013-03-15 20:06:00,62.2,20.7,29.49,NW,311,4.0,5.0,20,0.00,,---,0.00,VWS V14.00,2013-03-16 02:06:00,
2013-03-15 20:11:00,61.4,21.1,29.49,NE,38,7.0,8.0,21,0.00,,---,0.00,VWS V14.00,2013-03-16 02:11:00,
2013-03-15 20:16:00,61.7,20.2,29.49,North,5,1.0,6.0,20,0.00,,---,0.00,VWS V14.00,2013-03-16 02:16:00,
2013-03-15 20:22:00,61.9,21.6,29.49,WSW,257,6.0,16.0,21,0.00,,---,0.00,VWS V14.00,2013-03-16 02:22:00,
2013-03-15 20:27:00,62.4,22.0,29.49,NE,46,3.0,6.0,21,0.00,,---,0.00,VWS V14.00,2013-03-16 02:27:00,
2013-03-15 20:32:00,62.6,22.1,29.49,NNE,22,5.0,8.0,21,0.00,,---,0.00,VWS V14.00,2013-03-16 02:32:00,
2013-03-15 20:37:00,62.6,22.1,29.49,NE,44,6.0,12.0,21,0.00,,---,0.00,VWS V14.00,2013-03-16 02:37:00,
2013-03-15 20:43:00,62.5,22.1,29.49,NNE,13,4.0,12.0,21,0.00,,---,0.00,VWS V14.00,2013-03-16 02:43:00,
2013-03-15 20:48:00,62.2,21.8,29.49,NNW,348,0.0,6.0,21,0.00,,---,0.00,VWS V14.00,2013-03-16 02:48:00,
2013-03-15 20:53:00,61.7,21.4,29.49,North,355,0.0,6.0,21,0.00,,---,0.00,VWS V14.00,2013-03-16 02:53:00,
2013-03-15 20:58:00,61.5,22.3,29.48,North,5,4.0,7.0,22,0.00,,---,0.00,VWS V14.00,2013-03-16 02:58:00,
2013-03-15 21:03:00,61.1,22.0,29.49,NW,309,5.0,7.0,22,0.00,,---,0.00,VWS V14.00,2013-03-16 03:03:00,
2013-03-15 21:09:00,60.8,21.7,29.49,NNW,341,5.0,7.0,22,0.00,,---,0.00,VWS V14.00,2013-03-16 03:09:00,
2013-03-15 21:14:00,60.7,21.7,29.49,NNW,327,4.0,7.0,22,0.00,,---,0.00,VWS V14.00,2013-03-16 03:14:00,
2013-03-15 21:19:00,60.4,21.4,29.48,NNE,12,3.0,8.0,22,0.00,,---,0.00,VWS V14.00,2013-03-16 03:19:00,
2013-03-15 21:24:00,60.2,21.2,29.48,NW,306,0.0,8.0,22,0.00,,---,0.00,VWS V14.00,2013-03-16 03:24:00,
2013-03-15 21:29:00,60.5,21.5,29.49,NNE,13,3.0,10.0,22,0.00,,---,0.00,VWS V14.00,2013-03-16 03:29:00,
2013-03-15 21:35:00,60.1,22.2,29.48,North,350,7.0,11.0,23,0.00,,---,0.00,VWS V14.00,2013-03-16 03:35:00,
2013-03-15 21:40:00,59.3,22.5,29.49,North,5,8.0,11.0,24,0.00,,---,0.00,VWS V14.00,2013-03-16 03:40:00,
2013-03-15 21:45:00,59.5,22.7,29.48,NNE,18,8.0,15.0,24,0.00,,---,0.00,VWS V14.00,2013-03-16 03:45:00,
2013-03-15 21:50:00,59.2,23.4,29.48,North,355,9.0,17.0,25,0.00,,---,0.00,VWS V14.00,2013-03-16 03:50:00,
2013-03-15 21:55:00,58.9,24.1,29.48,NNE,12,10.0,14.0,26,0.00,,---,0.00,VWS V14.00,2013-03-16 03:55:00,
2013-03-15 22:00:00,58.7,23.9,29.48,North,5,11.0,14.0,26,0.00,,---,0.00,VWS V14.00,2013-03-16 04:00:00,
2013-03-15 22:02:00,58.6,24.8,29.48,North,355,8.0,14.0,27,0.00,,---,0.00,VWS V14.00,2013-03-16 04:02:00,
2013-03-15 22:07:00,58.7,24.8,29.49,NNW,336,7.0,10.0,27,0.00,,---,0.00,VWS V14.00,2013-03-16 04:07:00,
2013-03-15 22:12:00,57.8,24.9,29.49,North,9,8.0,13.0,28,0.00,,---,0.00,VWS V14.00,2013-03-16 04:12:00,
2013-03-15 22:17:00,57.5,26.3,29.49,NNW,348,6.0,19.0,30,0.00,,---,0.00,VWS V14.00,2013-03-16 04:17:00,
2013-03-15 22:23:00,57.1,26.0,29.49,North,360,11.0,19.0,30,0.00,,---,0.00,VWS V14.00,2013-03-16 04:23:00,
2013-03-15 22:28:00,56.8,25.7,29.49,North,350,8.0,13.0,30,0.00,,---,0.00,VWS V14.00,2013-03-16 04:28:00,
2013-03-15 22:33:00,56.6,26.3,29.49,North,349,14.0,14.0,31,0.00,,---,0.00,VWS V14.00,2013-03-16 04:33:00,
2013-03-15 22:38:00,56.9,25.8,29.49,North,355,9.0,15.0,30,0.00,,---,0.00,VWS V14.00,2013-03-16 04:38:00,
2013-03-15 22:43:00,56.9,25.8,29.49,NNW,339,12.0,16.0,30,0.00,,---,0.00,VWS V14.00,2013-03-16 04:43:00,
2013-03-15 22:48:00,57.5,25.5,29.49,NNW,336,9.0,16.0,29,0.00,,---,0.00,VWS V14.00,2013-03-16 04:48:00,
2013-03-15 22:53:00,57.5,25.5,29.49,WNW,303,7.0,16.0,29,0.00,,---,0.00,VWS V14.00,2013-03-16 04:53:00,
2013-03-15 22:58:00,57.4,26.2,29.49,NW,314,9.0,11.0,30,0.00,,---,0.00,VWS V14.00,2013-03-16 04:58:00,
2013-03-15 23:04:00,56.5,27.0,29.49,North,355,8.0,14.0,32,0.00,,---,0.00,VWS V14.00,2013-03-16 05:04:00,
2013-03-15 23:09:00,56.0,27.3,29.49,NNW,344,10.0,11.0,33,0.00,,---,0.00,VWS V14.00,2013-03-16 05:09:00,
2013-03-15 23:14:00,55.8,27.9,29.48,North,5,12.0,17.0,34,0.00,,---,0.00,VWS V14.00,2013-03-16 05:14:00,
2013-03-15 23:19:00,55.9,28.0,29.49,NNW,344,8.0,14.0,34,0.00,,---,0.00,VWS V14.00,2013-03-16 05:19:00,
2013-03-15 23:24:00,55.3,27.4,29.49,North,5,6.0,14.0,34,0.00,,---,0.00,VWS V14.00,2013-03-16 05:24:00,
2013-03-15 23:29:00,55.1,27.3,29.49,NNE,15,6.0,8.0,34,0.00,,---,0.00,VWS V14.00,2013-03-16 05:29:00,
2013-03-15 23:34:00,55.1,27.3,29.48,NNE,28,8.0,9.0,34,0.00,,---,0.00,VWS V14.00,2013-03-16 05:34:00,
2013-03-15 23:39:00,55.9,27.2,29.48,NNW,347,10.0,16.0,33,0.00,,---,0.00,VWS V14.00,2013-03-16 05:39:00,
2013-03-15 23:45:00,56.8,27.3,29.49,NNW,340,2.0,16.0,32,0.00,,---,0.00,VWS V14.00,2013-03-16 05:45:00,
2013-03-15 23:50:00,57.2,26.9,29.49,NNE,14,8.0,9.0,31,0.00,,---,0.00,VWS V14.00,2013-03-16 05:50:00,
2013-03-15 23:55:00,57.1,27.5,29.48,North,355,12.0,12.0,32,0.00,,---,0.00,VWS V14.00,2013-03-16 05:55:00,